星链-6077 (STARLINK-6077 )

导读

STARLINK-6077是美国太空探索技术公司(SpaceX)于2023年3月29日发射的星链(Starlink)卫星,属于Starlink Group批次卫星。 它运行于近地轨道,是SpaceX星链星座的组成部分,星链星座计划最终部署超4万颗卫星,为全球提供高速低延迟互联网接入,支持偏远地区通信、移动网络、应急通信等场景,该星配备氪离子推进系统,具备轨道机动与自主避碰能力,退役后会再入大气层完全销毁减少空间碎片。

基本信息
目录编号:
56097
目录名称:
STARLINK-6077
国际标识:
2023-046E
轨道中心:
EARTH
卫星名称:
星链-6077
卫星全名:
星链-6077 (STARLINK-6077 )
卫星状态:
在轨 (已飞行1262 天)
发射日期:
2023-03-29 UTC
国别 :
美国 (US)
星等 :
--
轨道信息
数据来源 国际轨道数据 AOE轨道数据
星历时间 2026-09-10T06:28:23+0800
1天前
查看轨道信息
2026-09-10T23:00:00+0800
14小时前
查看轨道信息
半长轴 6861.211km 6861.225km
偏心率 0.0001447 0.0001281
轨道倾角 43.000° 43.002°
近地点辐角 225.966° 334.055°
升交点赤经 153.752° 149.863°
平近点角 134.107° 217.372°
近地点 482.081km 482.209km
远地点 484.067km 483.967km
周期 94.267分钟 94.268分钟
每日圈数 15.275719 15.275671
详细信息
固有亮度:
5
最大亮度:
2.5
卫星平台:
Starlink v1.5
覆盖范围:
全球
运营商:
太空探索技术公司
运营商所在国:
美国
制造商(研发单位):
太空探索技术公司
制造商所在国:
美国
使用方式:
暂无
卫星简介
星链(Starlink)计划是由太空探索技术公司(SpaceX)提出的一个巨型低轨卫星互联网星座项目,计划在2019年至2024年间在太空搭建由约1.2万颗卫星组成的“星链”网络,其中1584颗将部署在地球上空550千米处的近地轨道,并从2020年开始工作。该卫星仍在工作。
2D轨道图
3D轨道图
轨道高度分析图
轨道倾角分析图
轨道综合分析图
查看轨道综合分析图
交会数据列表
事件ID 空间交会对象 最接近时刻(TCA) 交会距离 交会风险概率(CRP) 交会风险指数(CRI) 操作
CDM_260912-191805-609706-634522
2026-09-12T
19:18:14+0000
0.171 km
中距离
7.546518E-4 高风险 0.93
CDM_260913-122905-609706-397421
2026-09-13T
12:29:16+0000
1.023 km
极远距离
1.188606E-5 中风险 0.57
CDM_260913-140305-609706-397421
2026-09-13T
14:03:26+0000
1.289 km
极远距离
5.374185E-6 低风险 0.5
CDM_260912-193405-609706-718421
2026-09-12T
19:34:06+0000
1.747 km
极远距离
3.281854E-6 低风险 0.45
CDM_260912-175905-609706-718421
2026-09-12T
17:59:57+0000
1.907 km
极远距离
2.575637E-6 低风险 0.43
CDM_260912-205205-609706-634522
2026-09-12T
20:52:24+0000
1.861 km
极远距离
2.317698E-6 低风险 0.42
CDM_260912-174405-609706-634521
2026-09-12T
17:44:05+0000
2.059 km
极远距离
1.796506E-6 低风险 0.4
CDM_260913-070405-609706-634521
2026-09-13T
07:04:24+0000
2.180 km
极远距离
1.579345E-6 低风险 0.39
CDM_260913-090702-510405-609721
2026-09-13T
09:07:19+0000
2.933 km
极远距离
9.495572E-7 极低风险 0.35
与全量物体交会距离演化趋势
与全量物体交会风险概率演化趋势